Raton, NM

7:22 PM MST on February 25, 2017 (GMT -0700)
Raton Municipal-Crews

Weather History for KRTN - May, 2013

Change the Weather History Date:

Sunday, May 19, 2013

  Actual Average (KTAD) Record (KTAD)
Temperature  
Mean Temperature 59 °F -  
Max Temperature 72 °F 74 °F 90 °F (1956)
Min Temperature 46 °F 45 °F 31 °F (1971)
Degree Days  
Heating Degree Days 6    
Growing Degree Days 9 (Base 50)    
Moisture  
Dew Point 21 °F    
Average Humidity 25    
Maximum Humidity 37    
Minimum Humidity 12    
Precipitation  
Precipitation 0.00 in - - ()
Sea Level Pressure  
Sea Level Pressure 29.67 in    
Wind  
Wind Speed 9 mph (NW)    
Max Wind Speed 29 mph    
Max Gust Speed 38 mph    
Visibility 10 miles    
Events      
Averages and records for this station are not official NWS values.
T = Trace of Precipitation, MM = Missing Value Source: NWS Daily Summary

Daily Weather History Graph

Daily Weather History Graph

Search for Another Location

Airport or City:

Trip Planner

Search our weather history database for the weather conditions in past years. The results will help you decide how hot, cold, wet, or windy it might be!

Date:

Astronomy

May. 19, 2013 Rise Set
Actual Time 5:47 AM MDT 8:02 PM MDT
Civil Twilight 5:18 AM MDT 8:31 PM MDT
Nautical Twilight 4:42 AM MDT 9:07 PM MDT
Astronomical Twilight 4:03 AM MDT 9:46 PM MDT
Moon 2:17 PM MDT (5/19) 2:02 AM MDT (5/19)
Length of Visible Light 15h 13m
Length of Day
14h 14m
Waxing Gibbous, 66% of the Moon is Illuminated
May 19
Waxing Gibbous
May 24
Full
May 31
Last Quarter
Jun 8
New
Jun 16
First Quarter

Hourly Weather History & Observations

Time (MDT) Temp. Dew Point Humidity Pressure Visibility Wind Dir Wind Speed Gust Speed Precip Events Conditions
12:53 AM 46.9 °F 21.9 °F 37% 29.67 in 10.0 mi NNE 6.9 mph - N/A   Clear
1:53 AM 46.9 °F 21.9 °F 37% 29.66 in 10.0 mi Variable 3.5 mph - N/A   Clear
2:53 AM 51.1 °F 23.0 °F 33% 29.65 in 10.0 mi Variable 5.8 mph - N/A   Clear
3:53 AM 50.0 °F 23.0 °F 35% 29.66 in 10.0 mi East 4.6 mph - N/A   Clear
4:53 AM 48.9 °F 23.0 °F 36% 29.67 in 10.0 mi Calm Calm - N/A   Partly Cloudy
5:53 AM 50.0 °F 21.9 °F 33% 29.68 in 10.0 mi North 8.1 mph - N/A   Clear
6:53 AM 52.0 °F 21.9 °F 31% 29.70 in 10.0 mi NE 6.9 mph - N/A   Clear
7:53 AM 60.1 °F 21.9 °F 23% 29.68 in 10.0 mi Variable 4.6 mph - N/A   Clear
8:53 AM 64.0 °F 18.0 °F 17% 29.66 in 10.0 mi North 8.1 mph - N/A   Clear
9:53 AM 64.9 °F 19.0 °F 17% 29.66 in 10.0 mi WSW 10.4 mph 23.0 mph N/A   Partly Cloudy
10:53 AM 66.9 °F 21.0 °F 17% 29.65 in 10.0 mi WSW 13.8 mph 18.4 mph N/A   Scattered Clouds
11:53 AM 66.0 °F 21.0 °F 18% 29.64 in 10.0 mi SSW 11.5 mph 25.3 mph N/A   Overcast
12:53 PM 66.9 °F 21.0 °F 17% 29.65 in 10.0 mi NNW 26.5 mph 38.0 mph 0.00 in   Scattered Clouds
1:01 PM 64.4 °F 21.2 °F 19% 29.84 in 10.0 mi NNW 11.5 mph 38.0 mph N/A   Scattered Clouds
1:53 PM 70.0 °F 21.9 °F 16% 29.62 in 10.0 mi Variable 4.6 mph - 0.00 in   Scattered Clouds
2:53 PM 72.0 °F 16.0 °F 12% 29.59 in 10.0 mi WNW 28.8 mph 34.5 mph N/A   Partly Cloudy
3:53 PM 70.0 °F 18.0 °F 14% 29.60 in 10.0 mi WNW 27.6 mph 36.8 mph N/A   Partly Cloudy
4:53 PM 69.1 °F 21.9 °F 17% 29.62 in 10.0 mi West 24.2 mph 35.7 mph N/A   Clear
5:53 PM 66.0 °F 19.9 °F 17% 29.65 in 10.0 mi WNW 15.0 mph 24.2 mph N/A   Clear
6:53 PM 63.0 °F 19.9 °F 19% 29.68 in 10.0 mi WNW 19.6 mph 27.6 mph N/A   Clear
7:53 PM 59.0 °F 21.9 °F 24% 29.68 in 10.0 mi NW 13.8 mph 19.6 mph N/A   Clear
8:53 PM 57.0 °F 21.9 °F 26% 29.69 in 10.0 mi West 13.8 mph 19.6 mph N/A   Clear
9:53 PM 53.1 °F 23.0 °F 31% 29.74 in 10.0 mi South 4.6 mph - N/A   Clear
10:53 PM 54.0 °F 24.1 °F 31% 29.72 in 10.0 mi NNW 8.1 mph - N/A   Clear
11:53 PM 48.0 °F 21.9 °F 36% 29.74 in 10.0 mi ENE 6.9 mph - N/A   Clear